| time (UTC) | temp C | wind direction | speed KPH | gust KPH | rain 1hr cm | rain 24hr cm | rain mn cm | humidity % | barometer mb |
| 20260503022129 | 26 | 104 | 1.6 | 6.4 | 0.00 | 0.00 | 0.00 | 78 | 1014.9 |
| 20260503021629 | 26 | 134 | 1.6 | 6.4 | 0.00 | 0.00 | 0.00 | 77 | 1014.9 |
| 20260503021129 | 26 | 149 | 1.6 | 8.0 | 0.00 | 0.00 | 0.00 | 77 | 1014.9 |
| 20260503020630 | 26 | 132 | 1.6 | 8.0 | 0.00 | 0.00 | 0.00 | 77 | 1014.9 |
| 20260503020130 | 26 | 121 | 1.6 | 8.0 | 0.00 | 0.00 | 0.00 | 77 | 1014.9 |
| 20260503015629 | 26 | 123 | 1.6 | 6.4 | 0.00 | 0.00 | 0.00 | 77 | 1015.2 |
| 20260503015129 | 26 | 143 | 1.6 | 8.0 | 0.00 | 0.00 | 0.00 | 79 | 1015.2 |
| 20260503014630 | 26 | 156 | 1.6 | 8.0 | 0.00 | 0.00 | 0.00 | 78 | 1015.2 |
| 20260503014130 | 26 | 158 | 1.6 | 8.0 | 0.00 | 0.00 | 0.00 | 79 | 1015.4 |
| 20260503013630 | 26 | 155 | 1.6 | 8.0 | 0.00 | 0.00 | 0.00 | 78 | 1015.4 |
| 20260503013129 | 26 | 141 | 1.6 | 6.4 | 0.00 | 0.00 | 0.00 | 78 | 1015.4 |
| 20260503012630 | 26 | 146 | 1.6 | 6.4 | 0.00 | 0.00 | 0.00 | 77 | 1015.5 |
| 20260503012129 | 26 | 154 | 1.6 | 8.0 | 0.00 | 0.00 | 0.00 | 78 | 1015.5 |
| 20260503011630 | 26 | 144 | 1.6 | 8.0 | 0.00 | 0.00 | 0.00 | 78 | 1015.5 |
| 20260503011130 | 26 | 137 | 1.6 | 8.0 | 0.00 | 0.00 | 0.00 | 78 | 1015.6 |
| 20260503010631 | 26 | 133 | 1.6 | 8.0 | 0.00 | 0.00 | 0.00 | 79 | 1015.6 |
| 20260503010131 | 26 | 117 | 1.6 | 6.4 | 0.00 | 0.00 | 0.00 | 79 | 1015.6 |
| 20260503005629 | 26 | 131 | 1.6 | 6.4 | 0.00 | 0.00 | 0.00 | 79 | 1016.0 |
| 20260503005129 | 26 | 144 | 1.6 | 6.4 | 0.00 | 0.00 | 0.00 | 78 | 1016.0 |
| 20260503004630 | 26 | 141 | 1.6 | 9.7 | 0.00 | 0.00 | 0.00 | 79 | 1016.0 |
| 20260503004129 | 26 | 147 | 1.6 | 9.7 | 0.00 | 0.00 | 0.00 | 79 | 1016.1 |
| 20260503003630 | 26 | 0 | 0.0 | 6.4 | 0.00 | 0.00 | 0.00 | 81 | 1016.1 |
| 20260503003130 | 26 | 132 | 1.6 | 4.8 | 0.00 | 0.00 | 0.00 | 80 | 1016.1 |
| 20260503002629 | 26 | 123 | 1.6 | 8.0 | 0.00 | 0.00 | 0.00 | 81 | 1016.3 |
| 20260503002131 | 25 | 150 | 1.6 | 11.3 | 0.00 | 0.00 | 0.00 | 80 | 1016.3 |
| 20260503001630 | 25 | 159 | 1.6 | 11.3 | 0.00 | 0.00 | 0.00 | 81 | 1016.3 |
| 20260503001130 | 25 | 0 | 0.0 | 9.7 | 0.00 | 0.00 | 0.00 | 82 | 1016.4 |
| 20260503000629 | 25 | 0 | 0.0 | 9.7 | 0.00 | 0.00 | 0.00 | 83 | 1016.4 |
| 20260503000130 | 25 | 0 | 0.0 | 4.8 | 0.00 | 0.00 | 0.00 | 83 | 1016.4 |
| 20260502235632 | 25 | 0 | 0.0 | 4.8 | 0.00 | 0.00 | 0.00 | 83 | 1016.3 |
| 20260502235129 | 25 | 0 | 0.0 | 4.8 | 0.00 | 0.00 | 0.00 | 84 | 1016.3 |
| 20260502234630 | 25 | 0 | 0.0 | 3.2 | 0.00 | 0.00 | 0.00 | 84 | 1016.3 |
| 20260502234129 | 25 | 0 | 0.0 | 1.6 | 0.00 | 0.00 | 0.00 | 85 | 1016.3 |
| 20260502233629 | 25 | 0 | 0.0 | 3.2 | 0.00 | 0.00 | 0.00 | 86 | 1016.3 |
| 20260502233129 | 24 | 0 | 0.0 | 3.2 | 0.00 | 0.00 | 0.00 | 86 | 1016.3 |
| 20260502232630 | 24 | 0 | 0.0 | 4.8 | 0.00 | 0.00 | 0.00 | 87 | 1016.3 |
| 20260502232130 | 24 | 0 | 0.0 | 4.8 | 0.00 | 0.00 | 0.00 | 87 | 1016.3 |
| 20260502231630 | 24 | 0 | 0.0 | 4.8 | 0.00 | 0.00 | 0.00 | 88 | 1016.3 |
| 20260502231129 | 23 | 0 | 0.0 | 3.2 | 0.00 | 0.00 | 0.00 | 89 | 1016.3 |
| 20260502230630 | 23 | 0 | 0.0 | 9.7 | 0.00 | 0.00 | 0.00 | 89 | 1016.3 |
| 20260502230129 | 23 | 0 | 0.0 | 9.7 | 0.00 | 0.00 | 0.00 | 90 | 1016.3 |
| 20260502225630 | 23 | 0 | 0.0 | 0.0 | 0.00 | 0.00 | 0.00 | 90 | 1016.3 |
| 20260502225130 | 22 | 0 | 0.0 | 8.0 | 0.00 | 0.00 | 0.00 | 91 | 1016.3 |
| 20260502224629 | 22 | 0 | 0.0 | 8.0 | 0.00 | 0.00 | 0.00 | 91 | 1016.3 |
| 20260502224130 | 22 | 0 | 0.0 | 1.6 | 0.00 | 0.00 | 0.00 | 91 | 1016.2 |
| 20260502223630 | 22 | 0 | 0.0 | 1.6 | 0.00 | 0.00 | 0.00 | 91 | 1016.2 |
| 20260502223130 | 21 | 0 | 0.0 | 3.2 | 0.00 | 0.00 | 0.00 | 92 | 1016.2 |
| 20260502222629 | 21 | 0 | 0.0 | 3.2 | 0.00 | 0.00 | 0.00 | 92 | 1016.0 |
| 20260502222130 | 21 | 0 | 0.0 | 3.2 | 0.00 | 0.00 | 0.00 | 93 | 1016.0 |
| 20260502221629 | 21 | 0 | 0.0 | 3.2 | 0.00 | 0.00 | 0.00 | 93 | 1016.0 |
| 20260502221129 | 21 | 0 | 0.0 | 3.2 | 0.00 | 0.00 | 0.00 | 93 | 1016.0 |
| 20260502220630 | 20 | 0 | 0.0 | 4.8 | 0.00 | 0.00 | 0.00 | 93 | 1016.0 |
| 20260502220130 | 20 | 0 | 0.0 | 6.4 | 0.00 | 0.00 | 0.00 | 93 | 1016.0 |
| 20260502215630 | 20 | 0 | 0.0 | 6.4 | 0.00 | 0.00 | 0.00 | 93 | 1015.8 |
| 20260502215128 | 20 | 0 | 0.0 | 1.6 | 0.00 | 0.00 | 0.00 | 93 | 1015.8 |
| 20260502214629 | 20 | 0 | 0.0 | 1.6 | 0.00 | 0.00 | 0.00 | 93 | 1015.8 |
| 20260502214131 | 20 | 0 | 0.0 | 1.6 | 0.00 | 0.00 | 0.00 | 94 | 1015.7 |
| 20260502213629 | 20 | 0 | 0.0 | 3.2 | 0.00 | 0.00 | 0.00 | 94 | 1015.7 |
| 20260502213130 | 19 | 0 | 0.0 | 4.8 | 0.00 | 0.00 | 0.00 | 94 | 1015.7 |
| 20260502212630 | 19 | 0 | 0.0 | 4.8 | 0.00 | 0.00 | 0.00 | 94 | 1015.5 |
| 20260502212129 | 19 | 0 | 0.0 | 0.0 | 0.00 | 0.00 | 0.00 | 93 | 1015.5 |
| 20260502211630 | 18 | 0 | 0.0 | 0.0 | 0.00 | 0.00 | 0.00 | 93 | 1015.5 |
| 20260502211130 | 18 | 0 | 0.0 | 0.0 | 0.00 | 0.00 | 0.00 | 93 | 1015.5 |
| 20260502210630 | 18 | 0 | 0.0 | 0.0 | 0.00 | 0.00 | 0.00 | 93 | 1015.5 |
| 20260502210130 | 18 | 0 | 0.0 | 0.0 | 0.00 | 0.00 | 0.00 | 93 | 1015.5 |
| 20260502205629 | 18 | 0 | 0.0 | 0.0 | 0.00 | 0.00 | 0.00 | 93 | 1015.4 |
| 20260502205130 | 18 | 0 | 0.0 | 1.6 | 0.00 | 0.00 | 0.00 | 93 | 1015.4 |
| 20260502204629 | 18 | 0 | 0.0 | 4.8 | 0.00 | 0.00 | 0.00 | 93 | 1015.4 |
| 20260502204130 | 18 | 0 | 0.0 | 4.8 | 0.00 | 0.00 | 0.00 | 93 | 1015.4 |
| 20260502203629 | 18 | 0 | 0.0 | 3.2 | 0.00 | 0.00 | 0.00 | 93 | 1015.4 |
| 20260502203129 | 18 | 0 | 0.0 | 3.2 | 0.00 | 0.00 | 0.00 | 93 | 1015.4 |
| 20260502202629 | 18 | 0 | 0.0 | 1.6 | 0.00 | 0.00 | 0.00 | 93 | 1015.3 |
| 20260502202128 | 18 | 0 | 0.0 | 0.0 | 0.00 | 0.00 | 0.00 | 93 | 1015.3 |
| 20260502201628 | 18 | 0 | 0.0 | 6.4 | 0.00 | 0.00 | 0.00 | 92 | 1015.3 |
| 20260502201130 | 18 | 0 | 0.0 | 6.4 | 0.00 | 0.00 | 0.00 | 92 | 1014.9 |
| 20260502200630 | 18 | 0 | 0.0 | 3.2 | 0.00 | 0.00 | 0.00 | 92 | 1014.9 |
| 20260502200129 | 18 | 0 | 0.0 | 3.2 | 0.00 | 0.00 | 0.00 | 92 | 1014.9 |
| 20260502195628 | 18 | 0 | 0.0 | 3.2 | 0.00 | 0.00 | 0.00 | 92 | 1014.9 |
| 20260502195129 | 18 | 0 | 0.0 | 1.6 | 0.00 | 0.00 | 0.00 | 92 | 1014.9 |
| 20260502194629 | 18 | 0 | 0.0 | 3.2 | 0.00 | 0.00 | 0.00 | 92 | 1014.9 |
| 20260502194128 | 18 | 0 | 0.0 | 3.2 | 0.00 | 0.00 | 0.00 | 92 | 1014.9 |
| 20260502193630 | 18 | 0 | 0.0 | 3.2 | 0.00 | 0.00 | 0.00 | 92 | 1014.9 |
| 20260502193129 | 19 | 0 | 0.0 | 3.2 | 0.00 | 0.00 | 0.00 | 92 | 1014.9 |
| 20260502192629 | 19 | 0 | 0.0 | 1.6 | 0.00 | 0.00 | 0.00 | 92 | 1014.7 |
| 20260502192130 | 19 | 0 | 0.0 | 0.0 | 0.00 | 0.00 | 0.00 | 92 | 1014.7 |
| 20260502191629 | 19 | 0 | 0.0 | 4.8 | 0.00 | 0.00 | 0.00 | 92 | 1014.7 |
| 20260502191130 | 19 | 0 | 0.0 | 4.8 | 0.00 | 0.00 | 0.00 | 92 | 1014.8 |
| 20260502190631 | 19 | 0 | 0.0 | 1.6 | 0.00 | 0.00 | 0.00 | 92 | 1014.8 |
| 20260502190129 | 19 | 0 | 0.0 | 3.2 | 0.00 | 0.00 | 0.00 | 91 | 1014.8 |
| 20260502185629 | 19 | 0 | 0.0 | 3.2 | 0.00 | 0.00 | 0.00 | 92 | 1014.9 |
| 20260502185130 | 20 | 0 | 0.0 | 3.2 | 0.00 | 0.00 | 0.00 | 92 | 1014.9 |
| 20260502184630 | 20 | 0 | 0.0 | 6.4 | 0.00 | 0.00 | 0.00 | 91 | 1014.9 |
| 20260502184129 | 20 | 0 | 0.0 | 6.4 | 0.00 | 0.00 | 0.00 | 91 | 1014.9 |
| 20260502183629 | 20 | 0 | 0.0 | 3.2 | 0.00 | 0.00 | 0.00 | 91 | 1014.9 |
| 20260502183129 | 20 | 0 | 0.0 | 8.0 | 0.00 | 0.00 | 0.00 | 91 | 1014.9 |
| 20260502182629 | 20 | 0 | 0.0 | 8.0 | 0.00 | 0.00 | 0.00 | 91 | 1014.7 |
| 20260502182130 | 20 | 0 | 0.0 | 1.6 | 0.00 | 0.00 | 0.00 | 91 | 1014.7 |
| 20260502181629 | 20 | 0 | 0.0 | 8.0 | 0.00 | 0.00 | 0.00 | 91 | 1014.7 |
| 20260502181129 | 20 | 0 | 0.0 | 8.0 | 0.00 | 0.00 | 0.00 | 91 | 1014.5 |
| 20260502180630 | 20 | 0 | 0.0 | 3.2 | 0.00 | 0.00 | 0.00 | 90 | 1014.5 |
| 20260502180128 | 20 | 0 | 0.0 | 9.7 | 0.00 | 0.00 | 0.00 | 90 | 1014.5 |
| 20260502170129 | 21 | 0 | 0.0 | 1.6 | 0.00 | 0.00 | 0.00 | 85 | 1014.9 |
| 20260502164129 | 21 | 0 | 0.0 | 3.2 | 0.00 | 0.00 | 0.00 | 83 | 1015.0 |
| 20260502163629 | 21 | 0 | 0.0 | 3.2 | 0.00 | 0.00 | 0.00 | 83 | 1015.0 |
| 20260502163130 | 22 | 0 | 0.0 | 1.6 | 0.00 | 0.00 | 0.00 | 83 | 1015.0 |
| 20260502162630 | 22 | 0 | 0.0 | 1.6 | 0.00 | 0.00 | 0.00 | 83 | 1015.0 |
| 20260502162128 | 22 | 0 | 0.0 | 3.2 | 0.00 | 0.00 | 0.00 | 83 | 1015.0 |
| 20260502161628 | 22 | 0 | 0.0 | 3.2 | 0.00 | 0.00 | 0.00 | 83 | 1015.0 |
| 20260502161129 | 22 | 0 | 0.0 | 1.6 | 0.00 | 0.03 | 0.00 | 83 | 1015.1 |
| 20260502160628 | 22 | 0 | 0.0 | 1.6 | 0.00 | 0.03 | 0.00 | 83 | 1015.1 |
| 20260502160128 | 22 | 0 | 0.0 | 1.6 | 0.00 | 0.03 | 0.00 | 83 | 1015.1 |
| 20260502152129 | 22 | 0 | 0.0 | 4.8 | 0.00 | 0.03 | 0.00 | 83 | 1015.3 |
| 20260502151628 | 22 | 0 | 0.0 | 4.8 | 0.00 | 0.03 | 0.00 | 82 | 1015.3 |
| 20260502151129 | 22 | 0 | 0.0 | 3.2 | 0.00 | 0.03 | 0.00 | 82 | 1015.5 |
| 20260502150629 | 22 | 0 | 0.0 | 4.8 | 0.00 | 0.03 | 0.00 | 82 | 1015.5 |
| 20260502150129 | 22 | 0 | 0.0 | 4.8 | 0.00 | 0.03 | 0.00 | 82 | 1015.5 |
| 20260502140128 | 22 | 0 | 0.0 | 6.4 | 0.00 | 0.03 | 0.00 | 83 | 1015.9 |
| 20260502130629 | 22 | 0 | 0.0 | 6.4 | 0.00 | 0.03 | 0.03 | 83 | 1016.2 |
| 20260502130129 | 22 | 0 | 0.0 | 6.4 | 0.00 | 0.03 | 0.03 | 84 | 1016.2 |
| 20260502123630 | 23 | 129 | 1.6 | 8.0 | 0.00 | 0.03 | 0.03 | 84 | 1016.3 |
| 20260502123130 | 23 | 0 | 0.0 | 8.0 | 0.00 | 0.03 | 0.03 | 84 | 1016.3 |
| 20260502122630 | 23 | 0 | 0.0 | 6.4 | 0.00 | 0.05 | 0.03 | 84 | 1016.3 |
| 20260502122129 | 23 | 0 | 0.0 | 6.4 | 0.00 | 0.05 | 0.03 | 84 | 1016.3 |
| 20260502121628 | 23 | 143 | 1.6 | 8.0 | 0.00 | 0.05 | 0.03 | 84 | 1016.3 |
| 20260502121129 | 23 | 0 | 0.0 | 8.0 | 0.00 | 0.05 | 0.03 | 84 | 1016.3 |
| 20260502120629 | 23 | 0 | 0.0 | 8.0 | 0.00 | 0.13 | 0.03 | 84 | 1016.3 |
| 20260502120128 | 23 | 0 | 0.0 | 8.0 | 0.00 | 0.20 | 0.03 | 84 | 1016.3 |
| 20260502115630 | 23 | 0 | 0.0 | 4.8 | 0.00 | 0.23 | 0.03 | 84 | 1016.3 |
| 20260502115129 | 23 | 0 | 0.0 | 6.4 | 0.00 | 0.23 | 0.03 | 85 | 1016.3 |
| 20260502114629 | 23 | 0 | 0.0 | 6.4 | 0.00 | 0.25 | 0.03 | 85 | 1016.3 |
| 20260502114129 | 23 | 0 | 0.0 | 6.4 | 0.00 | 0.30 | 0.03 | 85 | 1016.1 |
| 20260502113628 | 23 | 0 | 0.0 | 6.4 | 0.00 | 0.38 | 0.03 | 85 | 1016.1 |
| 20260502113128 | 23 | 0 | 0.0 | 4.8 | 0.00 | 0.66 | 0.03 | 85 | 1016.1 |
| 20260502112629 | 23 | 0 | 0.0 | 4.8 | 0.00 | 0.69 | 0.03 | 85 | 1016.1 |
| 20260502112130 | 23 | 139 | 1.6 | 6.4 | 0.00 | 0.69 | 0.03 | 85 | 1016.1 |
| 20260502111630 | 23 | 138 | 1.6 | 9.7 | 0.00 | 0.71 | 0.03 | 85 | 1016.1 |
| 20260502111128 | 23 | 0 | 0.0 | 9.7 | 0.00 | 0.71 | 0.03 | 85 | 1016.2 |
| 20260502110629 | 23 | 0 | 0.0 | 4.8 | 0.00 | 0.74 | 0.03 | 86 | 1016.2 |
| 20260502110128 | 23 | 0 | 0.0 | 4.8 | 0.00 | 0.74 | 0.03 | 85 | 1016.2 |
| 20260502105629 | 23 | 0 | 0.0 | 4.8 | 0.00 | 0.74 | 0.03 | 85 | 1016.3 |
| 20260502105128 | 23 | 0 | 0.0 | 4.8 | 0.00 | 0.74 | 0.03 | 85 | 1016.3 |
| 20260502104630 | 23 | 0 | 0.0 | 11.3 | 0.00 | 0.76 | 0.03 | 86 | 1016.3 |
| 20260502104129 | 23 | 0 | 0.0 | 11.3 | 0.00 | 0.76 | 0.03 | 86 | 1016.4 |
| 20260502103629 | 23 | 0 | 0.0 | 3.2 | 0.00 | 0.84 | 0.03 | 86 | 1016.4 |
| 20260502103128 | 23 | 0 | 0.0 | 3.2 | 0.00 | 0.84 | 0.03 | 86 | 1016.4 |
| 20260502102629 | 23 | 0 | 0.0 | 3.2 | 0.00 | 0.84 | 0.03 | 85 | 1016.2 |
| 20260502102129 | 23 | 0 | 0.0 | 6.4 | 0.00 | 0.84 | 0.03 | 85 | 1016.2 |
| 20260502101629 | 23 | 0 | 0.0 | 6.4 | 0.00 | 0.84 | 0.03 | 85 | 1016.2 |
| 20260502101128 | 23 | 0 | 0.0 | 6.4 | 0.00 | 0.86 | 0.03 | 86 | 1016.1 |
| 20260502100629 | 23 | 0 | 0.0 | 6.4 | 0.00 | 0.86 | 0.03 | 86 | 1016.1 |
| 20260502100128 | 23 | 131 | 1.6 | 6.4 | 0.00 | 0.86 | 0.03 | 86 | 1016.1 |
| 20260502091128 | 23 | 0 | 0.0 | 8.0 | 0.00 | 0.89 | 0.03 | 86 | 1015.3 |
| 20260502090629 | 23 | 0 | 0.0 | 8.0 | 0.00 | 0.89 | 0.03 | 86 | 1015.3 |
| 20260502090129 | 23 | 147 | 1.6 | 8.0 | 0.00 | 0.89 | 0.03 | 86 | 1015.3 |
| 20260502071129 | 23 | 133 | 1.6 | 6.4 | 0.00 | 0.89 | 0.03 | 84 | 1014.4 |
| 20260502070631 | 24 | 0 | 0.0 | 6.4 | 0.00 | 0.89 | 0.03 | 84 | 1014.4 |
| 20260502070129 | 24 | 102 | 1.6 | 6.4 | 0.00 | 0.89 | 0.03 | 84 | 1014.4 |
| 20260502065630 | 24 | 108 | 1.6 | 8.0 | 0.00 | 0.89 | 0.03 | 84 | 1014.4 |
| 20260502065131 | 24 | 124 | 1.6 | 8.0 | 0.00 | 0.89 | 0.03 | 84 | 1014.4 |
| 20260502064631 | 24 | 121 | 1.6 | 6.4 | 0.00 | 0.89 | 0.03 | 84 | 1014.4 |
| 20260502064129 | 24 | 134 | 1.6 | 9.7 | 0.00 | 0.89 | 0.03 | 84 | 1014.2 |
| 20260502063631 | 24 | 0 | 0.0 | 9.7 | 0.00 | 0.89 | 0.03 | 84 | 1014.2 |
| 20260502063130 | 25 | 0 | 0.0 | 4.8 | 0.00 | 0.89 | 0.03 | 84 | 1014.2 |
| 20260502062630 | 25 | 0 | 0.0 | 3.2 | 0.00 | 0.89 | 0.03 | 83 | 1014.4 |
| 20260502062129 | 25 | 133 | 1.6 | 6.4 | 0.00 | 0.89 | 0.03 | 83 | 1014.4 |
| 20260502061629 | 25 | 141 | 1.6 | 8.0 | 0.00 | 0.89 | 0.03 | 83 | 1014.4 |
| 20260502061131 | 25 | 148 | 1.6 | 9.7 | 0.00 | 0.89 | 0.03 | 83 | 1014.4 |
| 20260502060630 | 25 | 142 | 1.6 | 9.7 | 0.00 | 0.89 | 0.03 | 83 | 1014.4 |
| 20260502060131 | 25 | 144 | 1.6 | 12.9 | 0.00 | 0.89 | 0.03 | 83 | 1014.4 |
| 20260502055629 | 25 | 145 | 1.6 | 12.9 | 0.00 | 0.89 | 0.03 | 83 | 1014.3 |
| 20260502055131 | 25 | 135 | 1.6 | 9.7 | 0.00 | 0.89 | 0.03 | 84 | 1014.3 |
| 20260502054631 | 25 | 0 | 0.0 | 9.7 | 0.00 | 0.89 | 0.03 | 84 | 1014.3 |
| 20260502054130 | 25 | 0 | 0.0 | 4.8 | 0.00 | 0.89 | 0.03 | 84 | 1014.4 |
| 20260502053629 | 25 | 143 | 1.6 | 8.0 | 0.00 | 0.89 | 0.03 | 82 | 1014.4 |
| 20260502053131 | 25 | 141 | 1.6 | 8.0 | 0.00 | 0.89 | 0.03 | 82 | 1014.4 |
| 20260502052631 | 25 | 141 | 1.6 | 8.0 | 0.00 | 0.89 | 0.03 | 82 | 1014.4 |
| 20260502052130 | 25 | 136 | 1.6 | 16.1 | 0.00 | 0.89 | 0.03 | 81 | 1014.4 |
| 20260502051630 | 26 | 140 | 1.6 | 16.1 | 0.00 | 0.89 | 0.03 | 81 | 1014.4 |
| 20260502051130 | 26 | 148 | 1.6 | 4.8 | 0.00 | 0.89 | 0.03 | 81 | 1014.4 |
| 20260502050629 | 26 | 137 | 1.6 | 4.8 | 0.00 | 0.89 | 0.03 | 82 | 1014.4 |
| 20260502050129 | 26 | 148 | 1.6 | 6.4 | 0.00 | 0.89 | 0.03 | 81 | 1014.4 |
| 20260502045631 | 26 | 152 | 1.6 | 6.4 | 0.00 | 0.89 | 0.03 | 80 | 1014.4 |
| 20260502045130 | 26 | 147 | 1.6 | 6.4 | 0.00 | 0.89 | 0.03 | 81 | 1014.4 |
| 20260502044630 | 26 | 149 | 1.6 | 14.5 | 0.00 | 0.89 | 0.03 | 82 | 1014.4 |
| 20260502044130 | 26 | 152 | 1.6 | 14.5 | 0.00 | 0.89 | 0.03 | 82 | 1014.4 |
| 20260502043632 | 25 | 147 | 1.6 | 6.4 | 0.00 | 0.89 | 0.03 | 82 | 1014.4 |
| 20260502043129 | 25 | 134 | 1.6 | 6.4 | 0.00 | 0.89 | 0.03 | 81 | 1014.4 |
| 20260502042631 | 26 | 138 | 1.6 | 11.3 | 0.00 | 0.89 | 0.03 | 81 | 1014.4 |
| 20260502042129 | 26 | 142 | 1.6 | 11.3 | 0.00 | 0.89 | 0.03 | 80 | 1014.4 |
| 20260502041630 | 26 | 132 | 1.6 | 9.7 | 0.00 | 0.89 | 0.03 | 80 | 1014.4 |
| 20260502041129 | 26 | 146 | 1.6 | 9.7 | 0.00 | 0.89 | 0.03 | 80 | 1014.5 |
| 20260502040630 | 26 | 165 | 1.6 | 8.0 | 0.00 | 0.89 | 0.03 | 81 | 1014.5 |
| 20260502040130 | 26 | 154 | 1.6 | 24.1 | 0.00 | 0.89 | 0.03 | 81 | 1014.5 |
| 20260502035630 | 26 | 146 | 1.6 | 24.1 | 0.00 | 0.89 | 0.03 | 80 | 1014.6 |
| 20260502035129 | 26 | 149 | 1.6 | 6.4 | 0.00 | 0.89 | 0.03 | 81 | 1014.6 |
| 20260502034630 | 26 | 148 | 1.6 | 17.7 | 0.00 | 0.89 | 0.03 | 80 | 1014.6 |
| 20260502034129 | 26 | 146 | 3.2 | 17.7 | 0.00 | 0.89 | 0.03 | 79 | 1014.7 |
| 20260502033630 | 26 | 148 | 1.6 | 16.1 | 0.00 | 0.89 | 0.03 | 79 | 1014.7 |
| 20260502033129 | 26 | 147 | 1.6 | 16.1 | 0.00 | 0.89 | 0.03 | 79 | 1014.7 |
| 20260502032630 | 26 | 147 | 1.6 | 16.1 | 0.00 | 0.89 | 0.03 | 80 | 1014.8 |
| 20260502032129 | 26 | 140 | 1.6 | 11.3 | 0.00 | 0.89 | 0.03 | 80 | 1014.8 |
| 20260502031631 | 26 | 141 | 1.6 | 11.3 | 0.00 | 0.89 | 0.03 | 79 | 1014.8 |
| 20260502031129 | 26 | 152 | 1.6 | 12.9 | 0.00 | 0.89 | 0.03 | 79 | 1014.9 |
| 20260502030629 | 26 | 134 | 1.6 | 12.9 | 0.00 | 0.89 | 0.03 | 79 | 1014.9 |
| 20260502030130 | 26 | 130 | 1.6 | 9.7 | 0.00 | 0.89 | 0.03 | 79 | 1014.9 |
| 20260502025629 | 26 | 148 | 3.2 | 9.7 | 0.00 | 0.89 | 0.03 | 79 | 1015.1 |
| 20260502025129 | 26 | 141 | 3.2 | 12.9 | 0.00 | 0.89 | 0.03 | 79 | 1015.1 |
| 20260502024629 | 26 | 116 | 1.6 | 12.9 | 0.00 | 0.89 | 0.03 | 79 | 1015.1 |
| 20260502024130 | 26 | 124 | 1.6 | 12.9 | 0.00 | 0.89 | 0.03 | 79 | 1015.3 |
| 20260502023629 | 26 | 140 | 1.6 | 9.7 | 0.00 | 0.89 | 0.03 | 79 | 1015.3 |
| 20260502023130 | 26 | 143 | 3.2 | 17.7 | 0.00 | 0.89 | 0.03 | 78 | 1015.3 |
| 20260502022629 | 27 | 139 | 3.2 | 17.7 | 0.00 | 0.89 | 0.03 | 79 | 1015.5 |